[[{"header":{"parameterUnit":"m.s-1","parameterCategory":1,"la1":30.2991,"la2":30.254,"lo1":-89.0895,"lo2":-89.0444,"dy":0.0017,"dx":0.0017,"nx":28,"ny":28,"refTime":"2025-05-27T09:00:00:Z","depth":0,"parameterNumber":2,"parameterNumberName":"U-component_of_WINDS"},"data":[0,0,0,0,0,0,0,0,0,0,0,0,0,0,0,0,0,0,0,0,0,0,0,0,0,0,0,0,0,0,0,0,0,0,0,0,0,0,0,0,0,0,0,0,0,0,0,0,0,0,0,0,0,0,0,0,0,0,1.3423,1.3423,0,1.3439,1.3439,1.3439,1.3347,1.3344,1.3342,1.3339,1.3359,1.3362,1.3365,0,0,0,0,0,0,0,0,0,0,0,0,0,1.3315,1.3317,1.3423,1.3423,1.3423,1.3439,1.3439,1.3439,1.3347,1.3344,1.3341,1.3338,1.3358,1.3362,1.3365,0,0,0,0,0,0,0,0,0,0,0,0,0,1.335,1.3318,1.3423,1.3379,1.3375,1.3439,1.3439,1.3439,1.3348,1.3344,1.334,1.3336,1.3357,1.3362,1.3366,1.3473,0,0,1.338,1.3382,0,0,0,0,0,0,0,0,1.3348,1.3354,1.3385,1.3382,1.3378,1.3387,1.3408,1.3451,1.3349,1.3359,1.3339,1.3334,1.3372,1.3375,1.3387,1.3474,1.3475,1.338,1.3383,1.3385,1.3386,0,0,0,0,0,0,0,1.3345,1.3352,1.3429,1.3386,1.3382,1.3359,1.336,1.3416,1.3387,1.3357,1.3351,1.3354,1.3369,1.3383,1.3387,1.3475,1.338,1.3384,1.3387,1.3389,1.365,1.3654,0,0,0,0,0,0,1.3348,1.3351,1.3429,1.343,1.3353,1.3365,1.3365,1.3388,1.3386,1.3382,1.3357,1.3349,1.3377,1.3381,1.3387,1.3512,1.3385,1.3389,1.3392,1.3646,1.3651,1.3655,0,0,0,0,0,0,1.3346,1.3356,1.3428,1.3388,1.3396,1.3371,1.3397,1.339,1.3404,1.3386,1.3381,1.3376,1.3374,1.3381,1.3452,1.3511,1.3391,1.3395,1.3641,1.3647,1.3653,1.3762,0,0,0,0,0,0,1.3344,1.3356,1.3396,1.339,1.3398,1.3493,1.3401,1.3394,1.3411,1.3401,1.3402,1.3399,1.3371,1.3446,1.3456,1.3515,1.3399,1.3635,1.3643,1.3651,1.3754,1.3772,1.3787,0,0,0,0,0,1.334,1.3428,1.3399,1.3409,1.3448,1.3496,1.3501,1.3466,1.3416,1.3457,1.3445,1.3399,1.3502,1.3454,1.3465,1.3526,1.3631,1.3641,1.365,1.3746,1.3768,1.3787,0,0,0,0,0,0,1.3444,1.3426,1.3394,1.3482,1.3491,1.348,1.3531,1.3491,1.3516,1.3506,1.3463,1.3464,1.3542,1.3541,1.3487,1.3629,1.3558,1.3571,1.3627,1.3648,1.3665,1.3664,1.3402,0,0,0,0,0,1.3476,1.3516,1.3499,1.3578,1.3584,1.3557,1.3576,1.3548,1.3557,1.3561,1.3554,1.3565,1.3599,1.3623,1.3654,1.3752,1.3751,1.38,1.3816,1.383,1.3842,1.3893,1.3914,1.3687,1.3686,1.3686,0,0,1.3545,1.354,1.3568,1.3599,1.3602,1.3645,1.3561,1.361,1.3641,1.3568,1.3635,1.363,1.3639,1.3724,1.3761,1.3725,1.3904,1.3843,1.3854,1.3858,1.3905,1.3926,1.3946,1.3693,1.3692,1.3691,0,0,1.3692,1.3692,1.3758,1.3762,1.3768,1.3749,1.3765,1.376,1.3754,1.3819,1.3765,1.3802,1.3863,1.3871,1.3883,1.403,1.3989,1.4042,1.4131,1.4181,1.4199,1.4214,1.4267,1.4286,1.4053,1.4053,1.4053,0,1.3777,1.3838,1.3797,1.3849,1.3863,1.3797,1.3863,1.387,1.3887,1.3899,1.3858,1.3932,1.3934,1.4019,1.4054,1.4066,1.4083,1.4042,1.4199,1.4215,1.4229,1.4278,1.4298,1.406,1.4059,1.4058,1.4058,0,1.3942,1.3985,1.4037,1.4053,1.4073,1.4133,1.41,1.4126,1.4096,1.4081,1.4148,1.4147,1.4176,1.4194,1.4166,1.4275,1.4253,1.4206,1.4135,1.4257,1.4303,1.4322,1.4069,1.4066,1.4065,1.4063,0,0,1.4157,1.4146,1.4167,1.4172,1.4173,1.4206,1.4261,1.4288,1.4311,1.4324,1.437,1.4421,1.4378,1.4392,1.4363,1.4407,1.4523,1.4355,1.4355,1.4387,1.4643,1.4679,1.4702,1.4495,1.4498,1.4501,1.4643,0,1.43,1.4394,1.4357,1.4454,1.4493,1.4429,1.4478,1.4484,1.4471,1.4502,1.4488,1.4526,1.4465,1.4473,1.4513,1.4501,1.4575,1.449,1.4538,1.454,1.4539,1.4726,1.4764,1.4897,1.466,1.4663,1.4666,0,1.4481,1.4499,1.4599,1.4591,1.4606,1.465,1.4671,1.4702,1.4707,1.4694,1.4709,1.467,1.4724,1.4652,1.4726,1.4669,1.4686,1.4683,1.4687,1.4691,1.4611,1.4736,1.4939,1.496,1.4693,1.4691,1.4689,0,1.4627,1.4677,1.4743,1.475,1.4742,1.4775,1.4773,1.4774,1.4792,1.481,1.4821,1.4846,1.4861,1.4881,1.485,1.48,1.4929,1.4854,1.492,1.4921,1.4952,1.4951,1.5162,1.4962,1.4961,1.4961,1.496,0,1.4792,1.4856,1.4809,1.485,1.4919,1.4876,1.4946,1.4938,1.4939,1.4977,1.4924,1.4961,1.4918,1.4951,1.4927,1.4992,1.4999,1.4991,1.4984,1.4996,1.4997,1.5008,1.4998,1.4966,1.4965,1.4964,1.4963,0,1.4969,1.4939,1.5007,1.4993,1.4991,1.5043,1.5032,1.5069,1.5051,1.51,1.511,1.5082,1.5118,1.5089,1.5125,1.5109,1.5195,1.5174,1.5193,1.5188,1.5256,1.5251,1.5483,1.5511,1.5292,1.5294,1.5296,0,1.5076,1.5123,1.5114,1.5135,1.5136,1.5172,1.5189,1.5148,1.5168,1.5176,1.5213,1.5244,1.5267,1.5327,1.5311,1.5338,1.5318,1.5398,1.5322,1.5333,1.532,1.5318,1.5322,1.5414,1.5416,1.5418,1.542,0,1.527,1.5253,1.5279,1.53,1.5322,1.5337,1.5348,1.5368,1.5326,1.5352,1.5387,1.5405,1.544,1.5472,1.5492,1.5491,1.545,1.5443,1.546,1.5474,1.5483,1.5479,1.5236,1.5439,1.5437,1.5436,1.5435,1.5434,1.5416,1.5454,1.5453,1.5484,1.5487,1.5498,1.5532,1.5518,1.5546,1.5571,1.5545,1.5588,1.559,1.5613,1.5617,1.565,1.5618,1.5642,1.5649,1.5656,1.5665,1.5477,1.5654,1.5653,1.5653,1.5652,1.5652,0,1.5607,1.5603,1.5631,1.5647,1.5671,1.5627,1.5636,1.566,1.5698,1.5703,1.5726,1.5766,1.5796,1.5781,1.5807,1.5837,1.5818,1.5845,1.5843,1.5844,1.5693,1.5676,1.586,1.586,1.586,1.586,1.5859,1.5859,1.571,1.5773,1.5755,1.5819,1.5814,1.5854,1.5863,1.5873,1.5877,1.5924,1.5947,1.5937,1.5934,1.5959,1.5984,1.5979,1.5992,1.6026,1.6014,1.5875,1.5854,1.5835,1.5818,1.6029,1.6029,1.6162,1.6163,1.6164]},{"header":{"parameterUnit":"m.s-1","parameterCategory":1,"la1":30.2991,"la2":30.254,"lo1":-89.0895,"lo2":-89.0444,"dy":0.0017,"dx":0.0017,"nx":28,"ny":28,"refTime":"2025-05-27T09:00:00:Z","depth":0,"parameterNumber":3,"parameterNumberName":"V-component_of_WINDS"},"data":[0,0,0,0,0,0,0,0,0,0,0,0,0,0,0,0,0,0,0,0,0,0,0,0,0,0,0,0,0,0,0,0,0,0,0,0,0,0,0,0,0,0,0,0,0,0,0,0,0,0,0,0,0,0,0,0,0,0,4.6843,4.6844,0,4.6978,4.6979,4.6981,4.6948,4.6945,4.6943,4.694,4.707,4.7076,4.7082,0,0,0,0,0,0,0,0,0,0,0,0,0,4.6547,4.6552,4.6843,4.6844,4.6846,4.6978,4.6979,4.6981,4.6948,4.6945,4.6942,4.6939,4.7068,4.7075,4.7082,0,0,0,0,0,0,0,0,0,0,0,0,0,4.6678,4.6554,4.6842,4.6846,4.6847,4.6977,4.6979,4.6982,4.6949,4.6945,4.6941,4.6937,4.7066,4.7074,4.7083,4.7215,0,0,4.711,4.7114,0,0,0,0,0,0,0,0,4.667,4.6689,4.6844,4.6846,4.6848,4.6942,4.6923,4.706,4.695,4.691,4.694,4.6936,4.703,4.7042,4.7075,4.7221,4.7227,4.7111,4.7116,4.712,4.7122,0,0,0,0,0,0,0,4.6661,4.6683,4.6896,4.6846,4.6848,4.6837,4.6852,4.6948,4.699,4.6913,4.6911,4.6928,4.703,4.7067,4.7078,4.7229,4.7111,4.7118,4.7124,4.7127,4.7488,4.7492,0,0,0,0,0,0,4.6652,4.6675,4.6892,4.69,4.6748,4.6846,4.6862,4.6916,4.6989,4.6996,4.6931,4.6926,4.7054,4.7068,4.7082,4.7241,4.712,4.7128,4.7133,4.7483,4.7489,4.7493,0,0,0,0,0,0,4.6646,4.6671,4.6886,4.6787,4.6814,4.6855,4.6916,4.692,4.6957,4.7003,4.7009,4.6962,4.7051,4.707,4.7183,4.7245,4.7132,4.714,4.7478,4.7485,4.7491,4.756,0,0,0,0,0,0,4.6637,4.6669,4.6723,4.6789,4.6819,4.6987,4.692,4.6926,4.6973,4.6968,4.7033,4.704,4.7049,4.717,4.7191,4.7255,4.7147,4.7473,4.7481,4.7489,4.7552,4.7568,4.7581,0,0,0,0,0,4.6627,4.6735,4.6726,4.6752,4.6887,4.6991,4.7008,4.702,4.6978,4.703,4.7059,4.7037,4.7235,4.7181,4.7206,4.7273,4.7469,4.7479,4.7488,4.7546,4.7565,4.7581,0,0,0,0,0,0,4.6673,4.6744,4.6734,4.6868,4.6924,4.6985,4.7052,4.704,4.7107,4.7098,4.7107,4.7122,4.7237,4.7266,4.7205,4.7403,4.7345,4.736,4.7381,4.7399,4.7414,4.7404,4.7154,0,0,0,0,0,4.6699,4.6781,4.6837,4.6949,4.6978,4.701,4.7056,4.706,4.7117,4.714,4.7178,4.7232,4.7305,4.7354,4.7424,4.7556,4.7568,4.7614,4.7628,4.764,4.7653,4.7722,4.7743,4.7525,4.7525,4.7525,0,0,4.6753,4.6802,4.6852,4.696,4.7004,4.7085,4.703,4.7119,4.7178,4.7153,4.7262,4.7291,4.7351,4.7474,4.753,4.7502,4.7716,4.7652,4.7662,4.7668,4.7734,4.7755,4.7773,4.7532,4.753,4.7529,0,0,4.6893,4.6939,4.7037,4.7083,4.7151,4.7171,4.7195,4.7258,4.7277,4.7387,4.7369,4.7438,4.7566,4.761,4.7648,4.7803,4.7784,4.7825,4.7901,4.7969,4.7986,4.8001,4.8055,4.8074,4.7838,4.7838,4.7838,0,4.6951,4.7076,4.7088,4.7179,4.7226,4.7208,4.7306,4.7348,4.7435,4.7466,4.7434,4.7593,4.7632,4.7764,4.7802,4.7834,4.7859,4.7818,4.7983,4.7999,4.8013,4.8064,4.8084,4.7842,4.7842,4.7841,4.7841,0,4.7142,4.7229,4.7299,4.7386,4.744,4.7534,4.7558,4.761,4.7609,4.7632,4.7742,4.7789,4.7868,4.79,4.7899,4.803,4.8011,4.7981,4.7923,4.8038,4.8086,4.8106,4.7849,4.7847,4.7846,4.7845,0,0,4.7316,4.7409,4.7434,4.7473,4.7546,4.7611,4.7702,4.7782,4.7826,4.7886,4.796,4.8068,4.8041,4.8085,4.8088,4.8148,4.8265,4.811,4.8111,4.8136,4.8411,4.8433,4.8455,4.8253,4.8257,4.826,4.8405,0,4.7462,4.7626,4.764,4.7786,4.7864,4.7848,4.7927,4.7978,4.8001,4.8069,4.8092,4.8169,4.8127,4.8154,4.8212,4.8239,4.832,4.8228,4.832,4.8323,4.8306,4.8481,4.8505,4.864,4.8424,4.8428,4.843,0,4.7655,4.7723,4.7878,4.7939,4.7972,4.8043,4.8116,4.8182,4.8238,4.825,4.83,4.8294,4.8384,4.8323,4.8445,4.8382,4.842,4.8439,4.8444,4.8452,4.8384,4.8493,4.8683,4.8703,4.846,4.8458,4.8456,0,4.7765,4.7894,4.8004,4.8037,4.8111,4.8161,4.8193,4.8247,4.8293,4.8356,4.8385,4.8457,4.8496,4.855,4.8562,4.8517,4.8684,4.8624,4.8694,4.8694,4.873,4.8728,4.8928,4.8756,4.8755,4.8755,4.8755,0,4.7926,4.8021,4.8054,4.8121,4.8226,4.8238,4.8341,4.837,4.8417,4.8487,4.8476,4.8541,4.8554,4.8621,4.8631,4.8729,4.8747,4.8757,4.8759,4.8758,4.8757,4.8783,4.8773,4.876,4.8759,4.8758,4.8757,0,4.8067,4.8093,4.8211,4.8271,4.8289,4.8363,4.8413,4.8476,4.8497,4.8585,4.8607,4.8639,4.8717,4.8735,4.8827,4.8833,4.895,4.8942,4.8932,4.8931,4.9,4.8993,4.9224,4.9254,4.9063,4.9064,4.9066,0,4.8168,4.8241,4.831,4.8358,4.8393,4.8469,4.8517,4.8531,4.8581,4.865,4.8703,4.8781,4.8843,4.8968,4.8997,4.9067,4.906,4.9136,4.9071,4.9067,4.906,4.9056,4.9062,4.9149,4.9151,4.9152,4.9154,0,4.8345,4.8354,4.8425,4.8501,4.8559,4.8618,4.8674,4.8713,4.8734,4.8789,4.8871,4.8919,4.9014,4.9089,4.9159,4.9188,4.9174,4.9174,4.9194,4.9194,4.9185,4.919,4.8965,4.9169,4.9167,4.9166,4.9165,4.9165,4.8468,4.8532,4.859,4.8669,4.8713,4.8766,4.8828,4.8857,4.8926,4.9006,4.9009,4.9096,4.9148,4.9241,4.9274,4.9341,4.9317,4.9346,4.9353,4.936,4.9365,4.9175,4.9353,4.9353,4.9352,4.9352,4.9352,0,4.8643,4.868,4.8753,4.8833,4.8894,4.8878,4.8939,4.899,4.9069,4.9119,4.9182,4.9273,4.9346,4.9381,4.9453,4.9499,4.9494,4.9517,4.9513,4.952,4.9383,4.9359,4.952,4.952,4.952,4.952,4.9519,4.9519,4.8742,4.8848,4.8864,4.8991,4.9026,4.9114,4.915,4.9197,4.9238,4.9342,4.9403,4.9427,4.947,4.9545,4.9609,4.9618,4.9644,4.967,4.9675,4.9547,4.9529,4.9513,4.949,4.9676,4.9676,4.9805,4.9807,4.9808]}]]